Time,TemperatureF,DewpointF,PressureIn,WindDirection,WindDirectionDegrees,WindSpeedMPH,WindSpeedGustMPH,Humidity,HourlyPrecipIn,Conditions,Clouds,dailyrainin,SoftwareType,DateUTC
2013-03-05 09:23:00,61.8,52.3,30.19,South,186,0.0,0.0,71,0.00,,,0.00,Wunderground v.1.15,2013-03-05 14:23:00,
2013-03-05 09:24:00,61.9,52.4,30.19,South,186,0.0,0.0,71,0.00,,,0.00,Wunderground v.1.15,2013-03-05 14:24:00,
2013-03-05 09:26:00,62.0,52.5,30.19,South,186,0.0,0.0,71,0.00,,,0.00,Wunderground v.1.15,2013-03-05 14:26:00,
2013-03-05 09:28:00,62.2,52.7,30.20,South,186,0.0,0.0,71,0.00,,,0.00,Wunderground v.1.15,2013-03-05 14:28:00,
2013-03-05 09:33:00,62.9,53.4,30.19,South,186,0.0,0.0,71,0.00,,,0.00,Wunderground v.1.15,2013-03-05 14:33:00,
2013-03-05 09:39:00,63.5,53.5,30.20,South,182,0.0,3.0,70,0.00,,,0.00,Wunderground v.1.15,2013-03-05 14:39:00,
2013-03-05 09:45:00,64.0,54.4,30.20,SSW,211,1.0,2.0,71,0.00,,,0.00,Wunderground v.1.15,2013-03-05 14:45:00,
2013-03-05 09:50:00,64.3,54.3,30.20,SSW,207,1.0,2.0,70,0.00,,,0.00,Wunderground v.1.15,2013-03-05 14:50:00,
2013-03-05 09:56:00,64.8,54.4,30.20,SSW,207,1.0,2.0,69,0.00,,,0.00,Wunderground v.1.15,2013-03-05 14:56:00,
2013-03-05 10:01:00,65.3,54.9,30.20,SSW,207,0.0,1.0,69,0.00,,,0.00,Wunderground v.1.15,2013-03-05 15:01:00,
2013-03-05 10:07:00,65.9,55.0,30.20,SSW,206,1.0,3.0,68,0.00,,,0.00,Wunderground v.1.15,2013-03-05 15:07:00,
2013-03-05 10:13:00,66.1,55.2,30.20,SW,225,1.0,3.0,68,0.00,,,0.00,Wunderground v.1.15,2013-03-05 15:13:00,
2013-03-05 10:18:00,66.5,55.6,30.19,South,169,1.0,4.0,68,0.00,,,0.00,Wunderground v.1.15,2013-03-05 15:18:00,
2013-03-05 10:24:00,66.8,55.9,30.19,South,178,2.0,9.0,68,0.00,,,0.00,Wunderground v.1.15,2013-03-05 15:24:00,
2013-03-05 10:29:00,66.8,55.9,30.19,South,171,3.0,9.0,68,0.00,,,0.00,Wunderground v.1.15,2013-03-05 15:29:00,
2013-03-05 10:35:00,67.0,56.1,30.19,SSW,200,3.0,10.0,68,0.00,,,0.00,Wunderground v.1.15,2013-03-05 15:35:00,
2013-03-05 10:40:00,66.8,55.9,30.19,SW,215,3.0,3.0,68,0.00,,,0.00,Wunderground v.1.15,2013-03-05 15:40:00,
2013-03-05 10:46:00,67.3,56.4,30.19,South,178,2.0,7.0,68,0.00,,,0.00,Wunderground v.1.15,2013-03-05 15:46:00,
2013-03-05 10:52:00,67.5,56.6,30.19,SW,226,3.0,7.0,68,0.00,,,0.00,Wunderground v.1.15,2013-03-05 15:52:00,
2013-03-05 10:57:00,67.6,56.7,30.19,SSW,208,3.0,7.0,68,0.00,,,0.00,Wunderground v.1.15,2013-03-05 15:57:00,
2013-03-05 11:03:00,67.9,56.9,30.19,South,171,2.0,9.0,68,0.00,,,0.00,Wunderground v.1.15,2013-03-05 16:03:00,
2013-03-05 11:09:00,68.3,56.9,30.19,South,175,4.0,9.0,67,0.00,,,0.00,Wunderground v.1.15,2013-03-05 16:09:00,
2013-03-05 11:14:00,68.5,56.7,30.19,SSW,209,5.0,6.0,66,0.00,,,0.00,Wunderground v.1.15,2013-03-05 16:14:00,
2013-03-05 11:20:00,68.8,57.0,30.20,SSW,213,5.0,6.0,66,0.00,,,0.00,Wunderground v.1.15,2013-03-05 16:20:00,
2013-03-05 11:25:00,68.8,57.4,30.20,SW,215,4.0,7.0,67,0.00,,,0.00,Wunderground v.1.15,2013-03-05 16:25:00,
2013-03-05 11:31:00,68.3,56.9,30.19,South,172,3.0,5.0,67,0.00,,,0.00,Wunderground v.1.15,2013-03-05 16:31:00,
2013-03-05 11:37:00,68.3,56.9,30.19,SSW,211,2.0,7.0,67,0.00,,,0.00,Wunderground v.1.15,2013-03-05 16:37:00,
2013-03-05 11:42:00,68.8,57.0,30.19,South,187,3.0,10.0,66,0.00,,,0.00,Wunderground v.1.15,2013-03-05 16:42:00,
2013-03-05 11:48:00,69.1,57.3,30.19,South,177,4.0,11.0,66,0.00,,,0.00,Wunderground v.1.15,2013-03-05 16:48:00,
2013-03-05 11:53:00,69.4,57.1,30.19,SW,233,3.0,8.0,65,0.00,,,0.00,Wunderground v.1.15,2013-03-05 16:53:00,
2013-03-05 11:59:00,69.5,57.2,30.19,WSW,245,2.0,8.0,65,0.00,,,0.00,Wunderground v.1.15,2013-03-05 16:59:00,
2013-03-05 12:05:00,69.8,57.1,30.19,SSE,151,3.0,9.0,64,0.00,,,0.00,Wunderground v.1.15,2013-03-05 17:05:00,
2013-03-05 12:11:00,70.1,57.4,30.18,SSW,211,4.0,5.0,64,0.00,,,0.00,Wunderground v.1.15,2013-03-05 17:11:00,
2013-03-05 12:17:00,70.5,57.7,30.18,SSW,196,3.0,10.0,64,0.00,,,0.00,Wunderground v.1.15,2013-03-05 17:17:00,
2013-03-05 12:23:00,70.7,57.5,30.18,NW,313,3.0,9.0,63,0.00,,,0.00,Wunderground v.1.15,2013-03-05 17:23:00,
2013-03-05 12:28:00,70.7,57.5,30.18,SSE,164,3.0,9.0,63,0.00,,,0.00,Wunderground v.1.15,2013-03-05 17:28:00,
2013-03-05 12:34:00,70.6,56.9,30.18,SW,226,5.0,8.0,62,0.00,,,0.00,Wunderground v.1.15,2013-03-05 17:34:00,
2013-03-05 12:39:00,70.2,57.0,30.17,South,185,5.0,8.0,63,0.00,,,0.00,Wunderground v.1.15,2013-03-05 17:39:00,
2013-03-05 12:45:00,70.3,56.7,30.17,SW,219,3.0,5.0,62,0.00,,,0.00,Wunderground v.1.15,2013-03-05 17:45:00,
2013-03-05 12:51:00,70.5,56.4,30.17,SSW,198,2.0,2.0,61,0.00,,,0.00,Wunderground v.1.15,2013-03-05 17:51:00,
2013-03-05 12:56:00,71.1,56.5,30.17,SW,217,2.0,5.0,60,0.00,,,0.00,Wunderground v.1.15,2013-03-05 17:56:00,
2013-03-05 13:02:00,71.8,56.7,30.16,West,272,3.0,8.0,59,0.00,,,0.00,Wunderground v.1.15,2013-03-05 18:02:00,
2013-03-05 13:08:00,71.7,57.1,30.16,WSW,238,3.0,8.0,60,0.00,,,0.00,Wunderground v.1.15,2013-03-05 18:08:00,
2013-03-05 13:13:00,71.9,56.8,30.16,West,259,2.0,5.0,59,0.00,,,0.00,Wunderground v.1.15,2013-03-05 18:13:00,
2013-03-05 13:19:00,72.5,56.4,30.15,South,175,1.0,5.0,57,0.00,,,0.00,Wunderground v.1.15,2013-03-05 18:19:00,
2013-03-05 13:25:00,72.5,56.9,30.15,WNW,298,1.0,4.0,58,0.00,,,0.00,Wunderground v.1.15,2013-03-05 18:25:00,
2013-03-05 13:30:00,72.8,56.7,30.15,SW,219,1.0,2.0,57,0.00,,,0.00,Wunderground v.1.15,2013-03-05 18:30:00,
2013-03-05 13:36:00,72.5,57.4,30.14,NW,318,1.0,9.0,59,0.00,,,0.00,Wunderground v.1.15,2013-03-05 18:36:00,
2013-03-05 13:41:00,72.2,57.1,30.14,WNW,299,2.0,2.0,59,0.00,,,0.00,Wunderground v.1.15,2013-03-05 18:41:00,
2013-03-05 13:47:00,72.0,56.4,30.14,SSW,213,3.0,10.0,58,0.00,,,0.00,Wunderground v.1.15,2013-03-05 18:47:00,
2013-03-05 13:53:00,72.1,57.0,30.13,SSW,196,1.0,7.0,59,0.00,,,0.00,Wunderground v.1.15,2013-03-05 18:53:00,
2013-03-05 13:58:00,72.4,56.3,30.13,SSW,210,1.0,7.0,57,0.00,,,0.00,Wunderground v.1.15,2013-03-05 18:58:00,
2013-03-05 14:04:00,72.5,56.4,30.13,SSW,192,2.0,14.0,57,0.00,,,0.00,Wunderground v.1.15,2013-03-05 19:04:00,
2013-03-05 14:10:00,72.1,56.0,30.13,SW,225,4.0,4.0,57,0.00,,,0.00,Wunderground v.1.15,2013-03-05 19:10:00,
2013-03-05 14:16:00,72.1,56.0,30.13,South,183,3.0,4.0,57,0.00,,,0.00,Wunderground v.1.15,2013-03-05 19:16:00,
2013-03-05 14:22:00,72.0,55.9,30.13,SW,221,3.0,3.0,57,0.00,,,0.00,Wunderground v.1.15,2013-03-05 19:22:00,
2013-03-05 14:28:00,72.3,56.2,30.13,NW,304,2.0,3.0,57,0.00,,,0.00,Wunderground v.1.15,2013-03-05 19:28:00,
2013-03-05 14:34:00,72.3,55.7,30.13,South,190,2.0,7.0,56,0.00,,,0.00,Wunderground v.1.15,2013-03-05 19:34:00,
2013-03-05 14:39:00,72.4,55.8,30.13,WNW,299,2.0,7.0,56,0.00,,,0.00,Wunderground v.1.15,2013-03-05 19:39:00,
2013-03-05 14:45:00,72.1,56.0,30.13,SW,217,2.0,3.0,57,0.00,,,0.00,Wunderground v.1.15,2013-03-05 19:45:00,
2013-03-05 14:50:00,72.5,56.4,30.12,NW,315,1.0,5.0,57,0.00,,,0.00,Wunderground v.1.15,2013-03-05 19:50:00,
2013-03-05 14:56:00,72.8,55.7,30.12,SW,215,1.0,8.0,55,0.00,,,0.00,Wunderground v.1.15,2013-03-05 19:56:00,
2013-03-05 15:01:00,72.7,55.6,30.12,SW,217,2.0,9.0,55,0.00,,,0.00,Wunderground v.1.15,2013-03-05 20:01:00,
2013-03-05 15:07:00,72.5,55.9,30.12,South,190,2.0,9.0,56,0.00,,,0.00,Wunderground v.1.15,2013-03-05 20:07:00,
2013-03-05 15:13:00,72.5,55.9,30.12,SW,232,2.0,3.0,56,0.00,,,0.00,Wunderground v.1.15,2013-03-05 20:13:00,
2013-03-05 15:19:00,72.6,56.5,30.13,WNW,296,1.0,5.0,57,0.00,,,0.00,Wunderground v.1.15,2013-03-05 20:19:00,
2013-03-05 15:25:00,72.4,56.3,30.13,SSW,201,2.0,6.0,57,0.00,,,0.00,Wunderground v.1.15,2013-03-05 20:25:00,
2013-03-05 15:31:00,72.1,56.0,30.13,SSE,167,3.0,4.0,57,0.00,,,0.00,Wunderground v.1.15,2013-03-05 20:31:00,
2013-03-05 15:36:00,71.6,56.0,30.13,SW,216,4.0,6.0,58,0.00,,,0.00,Wunderground v.1.15,2013-03-05 20:36:00,
2013-03-05 15:42:00,71.7,56.6,30.13,SW,234,3.0,5.0,59,0.00,,,0.00,Wunderground v.1.15,2013-03-05 20:42:00,
2013-03-05 15:47:00,71.9,56.3,30.12,SW,236,1.0,5.0,58,0.00,,,0.00,Wunderground v.1.15,2013-03-05 20:47:00,
2013-03-05 15:53:00,72.1,56.0,30.13,WNW,294,1.0,6.0,57,0.00,,,0.00,Wunderground v.1.15,2013-03-05 20:53:00,
2013-03-05 15:59:00,71.7,55.7,30.13,WNW,295,1.0,6.0,57,0.00,,,0.00,Wunderground v.1.15,2013-03-05 20:59:00,
2013-03-05 16:04:00,71.8,56.2,30.13,West,262,1.0,1.0,58,0.00,,,0.00,Wunderground v.1.15,2013-03-05 21:04:00,
2013-03-05 16:10:00,72.0,56.4,30.13,SSW,200,1.0,3.0,58,0.00,,,0.00,Wunderground v.1.15,2013-03-05 21:10:00,
2013-03-05 16:15:00,71.5,56.4,30.13,South,179,2.0,3.0,59,0.00,,,0.00,Wunderground v.1.15,2013-03-05 21:15:00,
2013-03-05 16:20:00,71.0,56.4,30.12,South,190,2.0,2.0,60,0.00,,,0.00,Wunderground v.1.15,2013-03-05 21:20:00,
2013-03-05 16:26:00,71.0,56.4,30.12,SSW,199,1.0,4.0,60,0.00,,,0.00,Wunderground v.1.15,2013-03-05 21:26:00,
2013-03-05 16:31:00,70.6,56.5,30.12,South,190,1.0,1.0,61,0.00,,,0.00,Wunderground v.1.15,2013-03-05 21:31:00,
2013-03-05 16:36:00,70.2,56.6,30.12,South,189,1.0,4.0,62,0.00,,,0.00,Wunderground v.1.15,2013-03-05 21:36:00,
2013-03-05 16:42:00,70.0,56.4,30.12,SSW,213,1.0,1.0,62,0.00,,,0.00,Wunderground v.1.15,2013-03-05 21:42:00,
2013-03-05 16:47:00,69.9,56.7,30.12,South,171,0.0,1.0,63,0.00,,,0.00,Wunderground v.1.15,2013-03-05 21:47:00,
2013-03-05 16:52:00,69.8,57.1,30.12,SSW,207,1.0,1.0,64,0.00,,,0.00,Wunderground v.1.15,2013-03-05 21:52:00,
2013-03-05 16:58:00,69.3,57.0,30.12,SW,228,1.0,7.0,65,0.00,,,0.00,Wunderground v.1.15,2013-03-05 21:58:00,
2013-03-05 17:03:00,69.2,56.5,30.12,South,172,1.0,9.0,64,0.00,,,0.00,Wunderground v.1.15,2013-03-05 22:03:00,
2013-03-05 17:09:00,68.7,56.9,30.12,SSW,205,2.0,9.0,66,0.00,,,0.00,Wunderground v.1.15,2013-03-05 22:09:00,
2013-03-05 17:14:00,68.4,56.6,30.12,SSW,206,2.0,4.0,66,0.00,,,0.00,Wunderground v.1.15,2013-03-05 22:14:00,
2013-03-05 17:19:00,68.3,57.3,30.12,SW,227,1.0,4.0,68,0.00,,,0.00,Wunderground v.1.15,2013-03-05 22:19:00,
2013-03-05 17:25:00,68.0,57.0,30.12,SW,215,2.0,10.0,68,0.00,,,0.00,Wunderground v.1.15,2013-03-05 22:25:00,
2013-03-05 17:30:00,67.9,56.9,30.12,SSW,206,2.0,2.0,68,0.00,,,0.00,Wunderground v.1.15,2013-03-05 22:30:00,
2013-03-05 17:35:00,67.7,57.2,30.12,SE,143,1.0,4.0,69,0.00,,,0.00,Wunderground v.1.15,2013-03-05 22:35:00,
2013-03-05 17:41:00,67.6,57.1,30.12,SSW,194,2.0,4.0,69,0.00,,,0.00,Wunderground v.1.15,2013-03-05 22:41:00,
2013-03-05 17:46:00,67.4,57.3,30.12,SSW,210,3.0,6.0,70,0.00,,,0.00,Wunderground v.1.15,2013-03-05 22:46:00,
2013-03-05 17:51:00,67.2,57.1,30.12,SSW,195,2.0,3.0,70,0.00,,,0.00,Wunderground v.1.15,2013-03-05 22:51:00,
2013-03-05 17:56:00,67.1,57.4,30.12,SW,223,1.0,3.0,71,0.00,,,0.00,Wunderground v.1.15,2013-03-05 22:56:00,
2013-03-05 18:02:00,67.0,57.3,30.11,South,189,1.0,10.0,71,0.00,,,0.00,Wunderground v.1.15,2013-03-05 23:02:00,
2013-03-05 18:07:00,66.9,57.6,30.11,SSW,198,1.0,10.0,72,0.00,,,0.00,Wunderground v.1.15,2013-03-05 23:07:00,
2013-03-05 18:12:00,66.8,57.5,30.11,South,190,1.0,1.0,72,0.00,,,0.00,Wunderground v.1.15,2013-03-05 23:12:00,
2013-03-05 18:18:00,66.6,57.7,30.11,South,180,2.0,9.0,73,0.00,,,0.00,Wunderground v.1.15,2013-03-05 23:18:00,
2013-03-05 18:23:00,66.4,57.9,30.10,SSW,192,2.0,6.0,74,0.00,,,0.00,Wunderground v.1.15,2013-03-05 23:23:00,
2013-03-05 18:28:00,66.2,57.7,30.10,SW,227,1.0,6.0,74,0.00,,,0.00,Wunderground v.1.15,2013-03-05 23:28:00,
2013-03-05 18:34:00,66.0,57.8,30.10,South,188,1.0,3.0,75,0.00,,,0.00,Wunderground v.1.15,2013-03-05 23:34:00,
2013-03-05 18:39:00,65.8,57.7,30.10,South,191,1.0,3.0,75,0.00,,,0.00,Wunderground v.1.15,2013-03-05 23:39:00,
2013-03-05 18:44:00,65.7,57.9,30.10,South,190,1.0,1.0,76,0.00,,,0.00,Wunderground v.1.15,2013-03-05 23:44:00,
2013-03-05 18:50:00,65.5,57.7,30.10,South,188,0.0,0.0,76,0.00,,,0.00,Wunderground v.1.15,2013-03-05 23:50:00,
2013-03-05 18:55:00,65.4,58.0,30.10,South,190,0.0,0.0,77,0.00,,,0.00,Wunderground v.1.15,2013-03-05 23:55:00,
2013-03-05 19:00:00,65.2,57.8,30.10,South,183,0.0,0.0,77,0.00,,,0.00,Wunderground v.1.15,2013-03-06 00:00:00,
2013-03-05 19:05:00,65.0,58.0,30.10,South,183,0.0,9.0,78,0.00,,,0.00,Wunderground v.1.15,2013-03-06 00:05:00,
2013-03-05 19:11:00,64.8,58.1,30.10,South,184,0.0,0.0,79,0.00,,,0.00,Wunderground v.1.15,2013-03-06 00:11:00,
2013-03-05 19:17:00,64.7,58.4,30.10,South,184,0.0,0.0,80,0.00,,,0.00,Wunderground v.1.15,2013-03-06 00:17:00,
2013-03-05 19:22:00,64.5,58.2,30.09,South,189,0.0,6.0,80,0.00,,,0.00,Wunderground v.1.15,2013-03-06 00:22:00,
2013-03-05 19:27:00,64.3,58.3,30.09,South,191,0.0,6.0,81,0.00,,,0.00,Wunderground v.1.15,2013-03-06 00:27:00,
2013-03-05 19:33:00,64.2,58.6,30.09,South,187,0.0,0.0,82,0.00,,,0.00,Wunderground v.1.15,2013-03-06 00:33:00,
2013-03-05 19:39:00,64.1,58.5,30.09,South,180,0.0,0.0,82,0.00,,,0.00,Wunderground v.1.15,2013-03-06 00:39:00,
2013-03-05 19:45:00,64.0,58.4,30.09,South,182,0.0,0.0,82,0.00,,,0.00,Wunderground v.1.15,2013-03-06 00:45:00,
2013-03-05 19:50:00,64.0,58.7,30.09,South,180,1.0,2.0,83,0.00,,,0.00,Wunderground v.1.15,2013-03-06 00:50:00,
2013-03-05 19:55:00,64.0,58.7,30.09,South,187,1.0,1.0,83,0.00,,,0.00,Wunderground v.1.15,2013-03-06 00:55:00,
2013-03-05 20:00:00,63.9,59.0,30.09,South,178,0.0,0.0,84,0.00,,,0.00,Wunderground v.1.15,2013-03-06 01:00:00,
2013-03-05 20:06:00,63.9,59.0,30.09,South,176,1.0,3.0,84,0.00,,,0.00,Wunderground v.1.15,2013-03-06 01:06:00,
2013-03-05 20:11:00,63.9,59.3,30.09,South,184,1.0,2.0,85,0.00,,,0.00,Wunderground v.1.15,2013-03-06 01:11:00,
2013-03-05 20:16:00,63.8,59.2,30.09,South,184,0.0,2.0,85,0.00,,,0.00,Wunderground v.1.15,2013-03-06 01:16:00,
2013-03-05 20:21:00,63.8,59.2,30.08,South,181,1.0,4.0,85,0.00,,,0.00,Wunderground v.1.15,2013-03-06 01:21:00,
2013-03-05 20:26:00,63.8,59.5,30.08,South,171,2.0,4.0,86,0.00,,,0.00,Wunderground v.1.15,2013-03-06 01:26:00,
2013-03-05 20:31:00,63.8,59.5,30.08,SSW,194,3.0,4.0,86,0.00,,,0.00,Wunderground v.1.15,2013-03-06 01:31:00,
2013-03-05 20:37:00,63.8,59.5,30.08,SSW,206,3.0,6.0,86,0.00,,,0.00,Wunderground v.1.15,2013-03-06 01:37:00,
2013-03-05 20:42:00,63.8,59.5,30.08,South,178,3.0,3.0,86,0.00,,,0.00,Wunderground v.1.15,2013-03-06 01:42:00,
2013-03-05 20:47:00,63.8,59.5,30.08,SSW,202,2.0,4.0,86,0.00,,,0.00,Wunderground v.1.15,2013-03-06 01:47:00,
2013-03-05 20:52:00,63.8,59.9,30.08,SSW,206,2.0,3.0,87,0.00,,,0.00,Wunderground v.1.15,2013-03-06 01:52:00,
2013-03-05 20:57:00,63.8,59.9,30.08,SSW,207,3.0,4.0,87,0.00,,,0.00,Wunderground v.1.15,2013-03-06 01:57:00,
2013-03-05 21:03:00,63.8,59.9,30.08,SSW,207,3.0,4.0,87,0.00,,,0.00,Wunderground v.1.15,2013-03-06 02:03:00,
2013-03-05 21:08:00,63.8,59.9,30.08,South,184,2.0,4.0,87,0.00,,,0.00,Wunderground v.1.15,2013-03-06 02:08:00,
2013-03-05 21:13:00,63.9,60.0,30.08,South,175,2.0,4.0,87,0.00,,,0.00,Wunderground v.1.15,2013-03-06 02:13:00,
2013-03-05 21:19:00,64.0,60.1,30.08,SSE,165,3.0,7.0,87,0.00,,,0.00,Wunderground v.1.15,2013-03-06 02:19:00,
2013-03-05 21:24:00,63.9,60.0,30.08,SSW,195,2.0,3.0,87,0.00,,,0.00,Wunderground v.1.15,2013-03-06 02:24:00,
2013-03-05 21:30:00,64.0,60.4,30.08,South,183,2.0,2.0,88,0.00,,,0.00,Wunderground v.1.15,2013-03-06 02:30:00,
2013-03-05 21:35:00,64.0,60.4,30.08,South,181,3.0,4.0,88,0.00,,,0.00,Wunderground v.1.15,2013-03-06 02:35:00,
2013-03-05 21:40:00,64.1,60.5,30.08,SSW,196,3.0,3.0,88,0.00,,,0.00,Wunderground v.1.15,2013-03-06 02:40:00,
2013-03-05 21:45:00,64.1,60.5,30.08,South,186,3.0,6.0,88,0.00,,,0.00,Wunderground v.1.15,2013-03-06 02:45:00,
2013-03-05 21:51:00,64.2,60.6,30.08,South,190,3.0,3.0,88,0.00,,,0.00,Wunderground v.1.15,2013-03-06 02:51:00,
2013-03-05 21:56:00,64.3,60.7,30.08,South,186,4.0,6.0,88,0.00,,,0.00,Wunderground v.1.15,2013-03-06 02:56:00,
2013-03-05 22:02:00,64.4,60.8,30.08,SSW,202,4.0,12.0,88,0.00,,,0.00,Wunderground v.1.15,2013-03-06 03:02:00,
2013-03-05 22:07:00,64.4,61.1,30.08,South,177,4.0,12.0,89,0.00,,,0.00,Wunderground v.1.15,2013-03-06 03:07:00,
2013-03-05 22:12:00,64.4,60.8,30.08,SSE,165,3.0,5.0,88,0.00,,,0.00,Wunderground v.1.15,2013-03-06 03:12:00,
2013-03-05 22:18:00,64.4,61.1,30.08,SSE,165,3.0,5.0,89,0.00,,,0.00,Wunderground v.1.15,2013-03-06 03:18:00,
2013-03-05 22:23:00,64.5,61.2,30.08,SSW,198,3.0,6.0,89,0.00,,,0.00,Wunderground v.1.15,2013-03-06 03:23:00,
2013-03-05 22:28:00,64.4,61.1,30.08,SSW,204,2.0,6.0,89,0.00,,,0.00,Wunderground v.1.15,2013-03-06 03:28:00,
2013-03-05 22:33:00,64.4,61.4,30.08,SSW,192,2.0,5.0,90,0.00,,,0.00,Wunderground v.1.15,2013-03-06 03:33:00,
2013-03-05 22:38:00,64.5,61.5,30.08,SSW,204,3.0,6.0,90,0.00,,,0.00,Wunderground v.1.15,2013-03-06 03:38:00,
2013-03-05 22:43:00,64.7,61.7,30.08,SSW,194,3.0,6.0,90,0.00,,,0.00,Wunderground v.1.15,2013-03-06 03:43:00,
2013-03-05 22:49:00,64.8,61.8,30.08,SW,217,3.0,7.0,90,0.00,,,0.00,Wunderground v.1.15,2013-03-06 03:49:00,
2013-03-05 22:54:00,64.9,61.9,30.08,SSW,209,3.0,5.0,90,0.00,,,0.00,Wunderground v.1.15,2013-03-06 03:54:00,
2013-03-05 22:59:00,65.0,62.0,30.07,SSW,202,3.0,5.0,90,0.00,,,0.00,Wunderground v.1.15,2013-03-06 03:59:00,
2013-03-05 23:05:00,65.1,62.1,30.08,WSW,248,2.0,12.0,90,0.00,,,0.00,Wunderground v.1.15,2013-03-06 04:05:00,
2013-03-05 23:11:00,65.2,61.9,30.08,SSW,208,3.0,3.0,89,0.00,,,0.00,Wunderground v.1.15,2013-03-06 04:11:00,
2013-03-05 23:16:00,65.2,61.9,30.08,South,187,3.0,5.0,89,0.00,,,0.00,Wunderground v.1.15,2013-03-06 04:16:00,
2013-03-05 23:21:00,65.4,62.1,30.07,South,183,4.0,5.0,89,0.00,,,0.00,Wunderground v.1.15,2013-03-06 04:21:00,
2013-03-05 23:26:00,65.4,62.1,30.07,WSW,254,4.0,7.0,89,0.00,,,0.00,Wunderground v.1.15,2013-03-06 04:26:00,
2013-03-05 23:31:00,65.5,62.2,30.07,South,182,4.0,4.0,89,0.00,,,0.00,Wunderground v.1.15,2013-03-06 04:31:00,
2013-03-05 23:37:00,65.5,61.9,30.07,SSW,205,4.0,7.0,88,0.00,,,0.00,Wunderground v.1.15,2013-03-06 04:37:00,
2013-03-05 23:42:00,65.6,61.9,30.07,South,186,4.0,7.0,88,0.00,,,0.00,Wunderground v.1.15,2013-03-06 04:42:00,
2013-03-05 23:47:00,65.6,61.9,30.07,South,188,3.0,7.0,88,0.00,,,0.00,Wunderground v.1.15,2013-03-06 04:47:00,
2013-03-05 23:53:00,65.6,61.9,30.07,SW,227,2.0,3.0,88,0.00,,,0.00,Wunderground v.1.15,2013-03-06 04:53:00,
2013-03-05 23:59:00,65.6,61.6,30.06,SW,226,2.0,6.0,87,0.00,,,0.00,Wunderground v.1.15,2013-03-06 04:59:00,